Regional Weather Roundup
Issued by NWS

Home | Current Version | Previous Version | Graphics & Text | Print | Product List | Glossary On
Versions: 1 2 3 4 5 6 7 8 9 10 11 12 13 14 15 16 17 18 19 20 21 22 23 24 25 26 27 28 29 30 31 32 33 34 35 36 37 38 39 40 41 42 43 44 45 46 47 48 49 50
000
ASUS43 KTOP 291008
RWRKS

WEATHER ROUNDUP FOR KANSAS
NATIONAL WEATHER SERVICE GOODLAND KS
400 AM CST THU JAN 29 2015

NOTE:  "FAIR" INDICATES FEW OR NO CLOUDS BELOW 12,000 FEET WITH NO
SIGNIFICANT WEATHER AND/OR OBSTRUCTIONS TO VISIBILITY.

KSZ001>006-013>018-027>032-041>047-291100-
NORTHWEST KANSAS

CITY           SKY/WX    TMP DP  RH WIND       PRES   REMARKS
GOODLAND       CLEAR     31  28  89 N13       30.33R WCI  21
HAYS           CLEAR     37  25  60 N26G35    30.27R WCI  26
HILL CITY      CLEAR     37  29  72 N12       30.30R WCI  29
RUSSELL        MOCLDY    39  31  72 N17       30.25R WCI  30
$$

KSZ061>065-074>080-084>089-291100-
SOUTHWEST KANSAS

CITY           SKY/WX    TMP DP  RH WIND       PRES   REMARKS
DODGE CITY     MOCLDY    43  31  62 N18G29    30.24R
ELKHART          N/A     40  28  62 NW12        N/A  WCI  33
GARDEN CITY    MOCLDY    40  32  73 N18       30.27R WCI  31
LIBERAL        MOCLDY    39  28  65 W10       30.31R WCI  32
PRATT          PTCLDY    45  32  61 N22       30.19R
$$

KSZ066>073-081>083-090>101-291100-
SOUTHEAST KANSAS

CITY           SKY/WX    TMP DP  RH WIND       PRES   REMARKS
CHANUTE        CLEAR     50  35  56 NW17      30.06R
COFFEYVILLE    CLEAR     53  33  46 NW14      30.06R
HUTCHINSON     CLEAR     48  33  56 N25G33    30.17R
MEDICINE LODGE   N/A     49  34  56 N17G24    30.16R
NEWTON         CLEAR     46  30  53 N23G33    30.16R
PARSONS        CLEAR     52  34  50 N15       30.06R
WICHITA INTL   PTCLDY    50  32  50 N21G32    30.14R
WICHITA JABRA  CLEAR     48  33  56 N24G33    30.13R
WICHITA MCCONL CLEAR     50  34  54 N26G35    30.13R
WINFIELD       PTCLDY    49  31  49 N16       30.12R
$$

KSZ007>012-019>026-033>040-048>060-102>105-291100-
NORTHEAST KANSAS

CITY           SKY/WX    TMP DP  RH WIND       PRES   REMARKS
CONCORDIA      CLOUDY    40  31  70 N17G25    30.22R WCI  31
EMPORIA        PTCLDY    46  35  65 N16G26    30.11R
LAWRENCE       CLOUDY    42  33  70 N24G41    30.10R
MANHATTAN      CLOUDY    41  31  67 N16G25    30.20R
MARYSVILLE     CLOUDY    37  30  75 N31G44    30.17R WCI  25
OLATHE IND     CLOUDY    44  36  73 NW24G37   30.06R
OLATHE EXE     CLOUDY    46  37  71 N15G32    30.03R
SALINA         CLOUDY    44  31  60 N21G30    30.23R
TOPEKA BILLARD CLOUDY    43  33  68 N20G32    30.13R
TOPEKA FORBES  CLOUDY    46  34  62 NW24G36   30.11R
$$


USA.gov is the U.S. government's official web portal to all federal, state and local government web resources and services.